TimeCST,TemperatureF,Dew PointF,Humidity,Sea Level PressureIn,VisibilityMPH,Wind Direction,Wind SpeedMPH,Gust SpeedMPH,PrecipitationIn,Events,Conditions,WindDirDegrees,DateUTC
12:15 AM,26.6,21.2,80,30.02,10.0,SSE,5.8,-,N/A,,Clear,160,2013-01-31 06:15:00
12:35 AM,26.6,23.0,86,30.02,10.0,South,3.5,-,N/A,,Clear,170,2013-01-31 06:35:00
12:55 AM,24.8,21.2,86,30.01,10.0,SSE,3.5,-,N/A,,Clear,160,2013-01-31 06:55:00
1:15 AM,24.8,21.2,86,30.01,10.0,Calm,Calm,-,N/A,,Clear,0,2013-01-31 07:15:00
1:35 AM,26.6,21.2,80,30.00,10.0,SSW,4.6,-,N/A,,Clear,200,2013-01-31 07:35:00
1:55 AM,24.8,19.4,80,30.00,10.0,SW,5.8,-,N/A,,Clear,220,2013-01-31 07:55:00
2:15 AM,24.8,19.4,80,30.00,10.0,SW,3.5,-,N/A,,Clear,230,2013-01-31 08:15:00
2:35 AM,24.8,21.2,86,30.00,10.0,Calm,Calm,-,N/A,,Clear,0,2013-01-31 08:35:00
2:55 AM,24.8,21.2,86,30.00,10.0,SSW,10.4,-,N/A,,Clear,210,2013-01-31 08:55:00
3:15 AM,24.8,19.4,80,29.99,10.0,SW,8.1,-,N/A,,Clear,230,2013-01-31 09:15:00
3:35 AM,26.6,19.4,74,29.99,10.0,WSW,9.2,-,N/A,,Clear,240,2013-01-31 09:35:00
3:55 AM,26.6,19.4,74,29.98,10.0,WSW,10.4,-,N/A,,Clear,250,2013-01-31 09:55:00
4:15 AM,26.6,19.4,74,29.98,10.0,WSW,10.4,-,N/A,,Clear,250,2013-01-31 10:15:00
4:35 AM,24.8,19.4,80,29.97,10.0,West,8.1,-,N/A,,Clear,260,2013-01-31 10:35:00
4:55 AM,24.8,19.4,80,29.98,10.0,WSW,10.4,-,N/A,,Clear,250,2013-01-31 10:55:00
5:15 AM,24.8,19.4,80,29.99,10.0,WSW,6.9,-,N/A,,Clear,250,2013-01-31 11:15:00
5:35 AM,24.8,19.4,80,30.00,10.0,SW,5.8,-,N/A,,Clear,230,2013-01-31 11:35:00
5:55 AM,24.8,19.4,80,30.00,10.0,West,3.5,-,N/A,,Clear,270,2013-01-31 11:55:00
6:15 AM,24.8,19.4,80,30.01,10.0,South,4.6,-,N/A,,Clear,180,2013-01-31 12:15:00
6:35 AM,24.8,17.6,74,30.01,10.0,SW,3.5,-,N/A,,Partly Cloudy,230,2013-01-31 12:35:00
6:55 AM,23.0,19.4,86,30.00,10.0,SSW,4.6,-,N/A,,Clear,210,2013-01-31 12:55:00
7:15 AM,23.0,19.4,86,30.02,10.0,Calm,Calm,-,N/A,,Clear,0,2013-01-31 13:15:00
7:35 AM,24.8,17.6,74,30.03,10.0,Calm,Calm,-,N/A,,Clear,0,2013-01-31 13:35:00
7:55 AM,24.8,19.4,80,30.04,10.0,Calm,Calm,-,N/A,,Clear,0,2013-01-31 13:55:00
8:15 AM,26.6,19.4,74,30.02,10.0,South,3.5,-,N/A,,Clear,180,2013-01-31 14:15:00
8:35 AM,28.4,21.2,74,30.06,10.0,Calm,Calm,-,N/A,,Clear,0,2013-01-31 14:35:00
8:55 AM,28.4,23.0,80,30.08,10.0,WSW,4.6,-,N/A,,Clear,240,2013-01-31 14:55:00
9:15 AM,32.0,23.0,69,30.10,10.0,West,8.1,-,N/A,,Clear,280,2013-01-31 15:15:00
9:35 AM,33.8,24.8,70,30.12,10.0,WNW,6.9,-,N/A,,Clear,300,2013-01-31 15:35:00
9:55 AM,37.4,24.8,60,30.13,10.0,WNW,6.9,-,N/A,,Clear,300,2013-01-31 15:55:00
10:15 AM,39.2,23.0,52,30.13,10.0,NNW,9.2,-,N/A,,Clear,340,2013-01-31 16:15:00
10:35 AM,39.2,23.0,52,30.15,10.0,North,11.5,-,N/A,,Clear,350,2013-01-31 16:35:00
10:55 AM,39.2,23.0,52,30.15,10.0,North,13.8,-,N/A,,Partly Cloudy,10,2013-01-31 16:55:00
11:15 AM,39.2,24.8,56,30.16,10.0,North,15.0,-,N/A,,Partly Cloudy,360,2013-01-31 17:15:00
11:35 AM,39.2,24.8,56,30.15,10.0,NNE,17.3,-,N/A,,Clear,20,2013-01-31 17:35:00
11:55 AM,39.2,26.6,61,30.16,10.0,NNE,17.3,-,N/A,,Clear,20,2013-01-31 17:55:00
12:15 PM,41.0,26.6,57,30.16,10.0,North,24.2,28.8,N/A,,Clear,10,2013-01-31 18:15:00
12:35 PM,41.0,26.6,57,30.16,10.0,NNE,21.9,27.6,N/A,,Clear,20,2013-01-31 18:35:00
12:55 PM,41.0,24.8,53,30.16,10.0,North,21.9,29.9,N/A,,Clear,10,2013-01-31 18:55:00
1:15 PM,39.2,23.0,52,30.17,10.0,NNE,20.7,28.8,N/A,,Clear,30,2013-01-31 19:15:00
1:35 PM,37.4,23.0,56,30.19,10.0,NNE,23.0,31.1,N/A,,Clear,30,2013-01-31 19:35:00
1:55 PM,37.4,23.0,56,30.20,10.0,North,24.2,29.9,N/A,,Mostly Cloudy,10,2013-01-31 19:55:00
2:15 PM,37.4,23.0,56,30.20,10.0,North,18.4,29.9,N/A,,Scattered Clouds,10,2013-01-31 20:15:00
2:35 PM,37.4,23.0,56,30.22,10.0,NNE,20.7,27.6,N/A,,Clear,20,2013-01-31 20:35:00
2:55 PM,35.6,23.0,60,30.23,10.0,NNE,18.4,26.5,N/A,,Clear,20,2013-01-31 20:55:00
3:15 PM,35.6,21.2,56,30.24,10.0,NNE,19.6,25.3,N/A,,Clear,20,2013-01-31 21:15:00
3:35 PM,33.8,17.6,52,30.25,10.0,NNE,18.4,25.3,N/A,,Clear,30,2013-01-31 21:35:00
3:55 PM,32.0,17.6,55,30.27,10.0,North,20.7,27.6,N/A,,Clear,10,2013-01-31 21:55:00
4:15 PM,32.0,15.8,51,30.29,10.0,NNE,21.9,26.5,N/A,,Clear,20,2013-01-31 22:15:00
4:35 PM,32.0,15.8,51,30.30,10.0,NNE,18.4,23.0,N/A,,Clear,30,2013-01-31 22:35:00
4:55 PM,30.2,14.0,51,30.32,10.0,NNE,18.4,25.3,N/A,,Clear,30,2013-01-31 22:55:00
5:15 PM,28.4,14.0,55,30.33,10.0,NNE,16.1,-,N/A,,Clear,20,2013-01-31 23:15:00
5:35 PM,28.4,12.2,51,30.33,10.0,NNE,19.6,24.2,N/A,,Clear,20,2013-01-31 23:35:00
5:55 PM,28.4,10.4,47,30.36,10.0,NNE,11.5,-,N/A,,Clear,20,2013-01-31 23:55:00
6:15 PM,26.6,12.2,55,30.39,10.0,NNE,6.9,-,N/A,,Clear,20,2013-02-01 00:15:00
6:35 PM,26.6,12.2,55,30.39,10.0,North,9.2,-,N/A,,Clear,360,2013-02-01 00:35:00
6:55 PM,26.6,14.0,59,30.40,10.0,NNE,8.1,-,N/A,,Clear,20,2013-02-01 00:55:00
7:15 PM,26.6,10.4,51,30.41,10.0,North,10.4,-,N/A,,Clear,10,2013-02-01 01:15:00
7:35 PM,24.8,10.4,54,30.42,10.0,NNE,10.4,-,N/A,,Clear,20,2013-02-01 01:35:00
7:55 PM,24.8,8.6,50,30.43,10.0,North,15.0,-,N/A,,Partly Cloudy,10,2013-02-01 01:55:00
8:15 PM,24.8,8.6,50,30.43,10.0,NNE,12.7,-,N/A,,Mostly Cloudy,30,2013-02-01 02:15:00
8:35 PM,23.0,6.8,50,30.44,10.0,NNE,11.5,-,N/A,,Mostly Cloudy,20,2013-02-01 02:35:00
8:55 PM,23.0,8.6,54,30.45,10.0,NNE,9.2,-,N/A,,Partly Cloudy,30,2013-02-01 02:55:00
9:15 PM,23.0,8.6,54,30.46,10.0,NE,6.9,-,N/A,,Clear,40,2013-02-01 03:15:00
9:35 PM,21.2,10.4,63,30.45,10.0,NE,4.6,-,N/A,,Clear,40,2013-02-01 03:35:00
10:15 PM,19.4,10.4,68,30.44,10.0,NE,8.1,-,N/A,,Scattered Clouds,40,2013-02-01 04:15:00
10:35 PM,19.4,10.4,68,30.44,10.0,NE,5.8,-,N/A,,Clear,50,2013-02-01 04:35:00
10:55 PM,19.4,10.4,68,30.45,10.0,Calm,Calm,-,N/A,,Clear,0,2013-02-01 04:55:00
11:15 PM,19.4,10.4,68,30.46,10.0,ENE,3.5,-,N/A,,Clear,70,2013-02-01 05:15:00
11:35 PM,19.4,10.4,68,30.43,10.0,ENE,8.1,-,N/A,,Clear,60,2013-02-01 05:35:00